This demonstration page uses our WeatherBlox Daily Observations layout. Learn more.

41.86663, -103.66717

Hourly Observations for August 10, 2020

Temp ( °F °C ) Dew Point ( °F °C ) Humidity (%) Winds ( mph kmh ) Pressure ( in mb ) Visibility ( mi km ) Precip ( " mm )
12:53 am 00:53 Clear 67 19.4 50 10 55 55 ENE 9 15 29.9 1013 10 16.0934 0 0
1:53 am 01:53 Clear 66 18.9 50 10 56 56 ENE 10 17 29.91 1013 10 16.0934 0 0
2:53 am 02:53 Clear 62 16.7 51 10.6 67 67 ENE 3 6 29.92 1013 10 16.0934 0 0
3:53 am 03:53 Clear 61 16.1 51 10.6 70 70 Calm 29.93 1014 10 16.0934 0 0
4:53 am 04:53 Mostly Cloudy 58 14.4 50 10 75 75 NNE 3 6 29.95 1014 10 16.0934 0 0
5:53 am 05:53 Clear 55 12.8 49 9.4 80 80 N 5 7 29.98 1015 10 16.0934 0 0
6:53 am 06:53 Sunny 59 15 51 10.6 75 75 NW 5 7 30.01 1016 10 16.0934 0 0
7:53 am 07:53 Sunny 66 18.9 50 10 56 56 ENE 3 6 30 1016 10 16.0934 0 0
8:53 am 08:53 Sunny 69 20.6 48 8.9 47 47 E 9 15 30.02 1017 10 16.0934 0 0
9:53 am 09:53 Sunny 72 22.2 48 8.9 43 43 ESE 13 20 30.02 1017 10 16.0934 0 0
10:53 am 10:53 Sunny 75 23.9 48 8.9 39 39 ESE 9 15 30.01 1016 10 16.0934 0 0
11:53 am 11:53 Sunny 78 25.6 50 10 37 37 ESE 9 15 30 1016 10 16.0934 0 0
12:53 pm 12:53 Sunny 80 26.7 52 11.1 38 38 E 12 19 29.98 1015 10 16.0934 0 0
1:53 pm 13:53 Sunny 82 27.8 51 10.6 34 34 SE 8 13 29.96 1014 10 16.0934 0 0
2:53 pm 14:53 Sunny 84 28.9 51 10.6 32 32 SE 8 13 29.93 1014 10 16.0934 0 0
3:53 pm 15:53 Sunny 86 30 54 12.2 33 33 ESE 15 24 29.9 1013 10 16.0934 0 0
4:53 pm 16:53 Sunny 86 30 55 12.8 35 35 E 15 24 29.88 1012 10 16.0934 0 0
5:53 pm 17:53 undefined 85 29.4 57 13.9 39 39 E 12 19 29.89 1012 10 16.0934 0 0
6:53 pm 18:53 Sunny 82 27.8 59 15 46 46 E 12 19 29.87 1012 10 16.0934 0 0
7:53 pm 19:53 Sunny 76 24.4 59 15 56 56 ESE 8 13 29.87 1012 10 16.0934 0 0
8:53 pm 20:53 Clear 73 22.8 60 15.6 64 64 ESE 13 20 29.88 1012 10 16.0934 0 0
9:53 pm 21:53 Clear 70 21.1 61 16.1 73 73 ESE 9 15 29.91 1013 10 16.0934 0 0
10:53 pm 22:53 Clear 69 20.6 61 16.1 76 76 ESE 13 20 29.89 1012 10 16.0934 0 0
11:53 pm 23:53 Clear 69 20.6 61 16.1 76 76 ESE 13 20 29.88 1012 10 16.0934 0 0

Powered by AerisWeather